Flag for Gibraltar Weather past 2 weeks in Gibraltar, Gibraltar

Now
70 °F

Clear.


Feels Like: 70 °F
Forecast: 72 / 77 °F
Wind: 24 mph from West

Location: Gibraltar Airport

Current Time: Jul 29, 2014 at 2:52:17 AM

Latest Report: Jul 29, 2014 at 1:50 AM


Visibility: N/A

Pressure: 29.95 "Hg

Humidity: 78%

Dew point: 63 °F

Location of GibraltarLocation

Historic Weather in Gibraltar — Graph

°F

Gibraltar temperature yesterday

Maximum temperature yesterday: 81 °F (at 2:50 PM)
Minimum temperature yesterday: 70 °F (at 12:50 AM)
Average temperature yesterday: 74 °F

Past Weeks' High & Low Weather Summary

 TemperatureHumidityPressure
High86 °F (Jul 14, 4:50 PM)100% (Jul 14, 3:50 AM)30.09 "Hg (Jul 14, 3:50 AM)
Low63 °F (Jul 14, 6:50 AM)42% (Jul 20, 6:50 PM)29.80 "Hg (Jul 24, 4:50 PM)
Average74 °F71%29.98 "Hg
* Reported Jul 14 12:50 AM — Jul 29 12:50 AM, Gibraltar, Weather by CustomWeather, © 2014

Note: Actual official high and low records may vary slightly from our data, if they occured in-between our weather recording intervals... More about our weather records

Advertising

Gibraltar weather history for previous 24 hours

 ConditionsComfort  
Time TempWeatherWind HumidityBarometerVisibility
12:50 AM
Jul 29
70 °FClear.23 mph78%29.95 "HgN/A
11:50 PM
Jul 28
70 °FClear.20 mph78%29.95 "HgN/A
10:50 PM70 °FPassing clouds.14 mph78%29.95 "HgN/A
9:50 PM72 °FPassing clouds.18 mph73%29.92 "HgN/A
8:50 PM73 °FPassing clouds.21 mph69%29.92 "HgN/A
7:50 PM77 °FPassing clouds.21 mph61%29.92 "HgN/A
6:50 PM79 °FSunny.21 mph54%29.92 "Hg10 mi
5:50 PM79 °FSunny.18 mph58%29.92 "Hg10 mi
4:50 PM79 °FSunny.16 mph58%29.95 "Hg10 mi
3:50 PM79 °FSunny.16 mph58%29.95 "Hg10 mi
2:50 PM81 °FSunny.13 mph54%29.98 "Hg10 mi
1:50 PM79 °FSunny.15 mph58%29.98 "Hg10 mi
12:50 PM79 °FSunny.12 mph58%29.98 "Hg10 mi
11:50 AM77 °FPassing clouds.10 mph57%30.01 "HgN/A
10:50 AM73 °FPassing clouds.15 mph69%30.01 "HgN/A
9:50 AM72 °FPassing clouds.16 mph73%30.01 "HgN/A
8:50 AM70 °FPassing clouds.13 mph78%30.01 "HgN/A
7:50 AM70 °FPassing clouds.15 mph78%30.01 "HgN/A
6:50 AM70 °FPassing clouds.16 mph78%30.01 "HgN/A
5:50 AM70 °FPassing clouds.16 mph78%30.01 "HgN/A
4:50 AM70 °FClear.21 mph78%30.01 "HgN/A
3:50 AM70 °FClear.17 mph78%30.01 "HgN/A
2:50 AM70 °FClear.17 mph78%30.01 "HgN/A
Weather by CustomWeather, © 2014

See weather overviewHow to use our weather pages